Location: Camp at the Woods
(43.2055°N, 93.0905°W)
Time: 01:55:42
(UTC+00:00)

Cosmos 2227 Rocket - Pass Details

Date: 27 May 2025
Orbit: 837 x 844 km, 71.0° (Epoch: 12 June)

Event Time Altitude Azimuth Distance (km) Brightness Sun altitude
Exits shadow 05:52:49 15° 98° (E) 2,142 4.2 -25.3°
Maximum altitude 05:52:51 15° 97° (E) 2,142 4.2 -25.3°
Drops below altitude 10° 05:55:48 10° 65° (ENE) 2,458 4.8 -25.4°
Sets 05:59:21 0° 43° (NE) 3,400 6.0 -25.4°
